Date,TemperatureHighF,TemperatureAvgF,TemperatureLowF,DewpointHighF,DewpointAvgF,DewpointLowF,HumidityHigh,HumidityAvg,HumidityLow,PressureMaxIn,PressureMinIn,WindSpeedMaxMPH,WindSpeedAvgMPH,GustSpeedMaxMPH,PrecipitationSumIn
2013-1-1,38,34,30,36,32,28,94,93,93,18.62,18.62,7,0,7,0.01
2013-1-2,36,30,22,28,22,18,84,71,61,21.06,16.57,4,0,4,0.00
2013-1-3,44,30,19,33,23,15,91,77,55,16.57,16.57,4,0,4,0.00
2013-1-7,54,51,45,32,30,27,49,44,40,18.08,17.75,6,0,6,0.00
2013-1-8,59,52,47,45,43,38,91,73,54,18.23,17.69,7,0,7,0.27
2013-1-9,54,50,47,47,44,38,94,80,60,17.52,16.72,17,1,17,0.05
2013-1-10,58,50,46,56,47,40,92,88,67,22.31,17.52,12,1,12,0.09
2013-1-11,65,54,44,48,46,41,92,75,51,25.36,22.31,14,1,14,0.00
2013-1-13,28,23,16,22,18,13,86,81,76,0.00,40.00,0,0,0,0.01
2013-1-14,28,17,13,19,13,10,98,85,61,17.72,17.72,0,0,0,0.00
2013-1-15,35,31,22,23,20,16,81,64,46,17.59,17.20,5,0,5,0.00
2013-1-16,44,29,14,25,18,11,92,68,44,25.84,17.59,3,0,3,0.01
2013-1-17,48,34,22,35,25,18,89,71,52,26.50,20.91,11,0,11,0.00
2013-1-18,56,39,22,35,27,19,91,65,38,26.04,17.00,10,0,10,0.00
2013-1-19,64,49,38,40,34,28,76,57,41,26.07,17.60,7,0,7,0.00
2013-1-20,60,43,27,38,31,23,90,65,40,26.61,19.01,7,0,7,0.00
2013-1-21,40,33,24,18,17,15,70,53,39,22.09,18.24,9,0,9,0.00
2013-1-22,47,33,20,28,21,14,82,64,47,22.09,17.35,9,0,9,0.00
2013-1-23,62,43,24,45,33,20,87,71,54,26.19,17.35,6,0,6,0.00
2013-1-24,44,39,35,34,24,18,73,55,44,25.75,20.06,10,1,10,0.00
2013-1-25,51,39,31,37,31,28,91,73,50,21.15,19.41,6,0,6,0.00
2013-1-26,61,46,31,33,28,24,85,53,27,22.67,18.18,6,0,6,0.00
2013-1-27,60,51,46,53,45,33,88,78,58,22.67,22.67,13,1,13,0.00
2013-1-28,71,68,66,61,61,60,83,78,72,0.00,40.00,1,1,0,0.00
2013-1-29,68,65,56,63,60,53,92,85,81,29.43,27.13,2,1,0,1.37
2013-2-4,61,39,37,48,5,-100,79,48,53,31.70,17.89,6,-256,6,0.00
2013-2-5,68,46,29,51,34,25,91,66,35,27.44,19.39,5,0,5,0.00
2013-2-6,66,49,33,44,37,29,88,65,44,27.51,27.44,7,0,7,0.00
2013-2-7,57,51,44,53,48,39,92,87,77,29.01,20.03,10,0,10,0.06
2013-2-8,52,42,33,39,33,29,86,71,47,29.03,19.24,12,0,12,0.00
2013-2-9,50,41,34,42,34,29,92,76,48,28.42,17.82,13,0,13,0.13
2013-2-10,62,52,40,53,40,28,94,67,36,32.08,17.82,14,1,14,0.36
2013-2-11,55,41,29,31,26,23,83,58,34,26.32,22.81,5,0,5,0.00
2013-2-12,46,36,27,33,28,23,89,72,53,22.81,21.07,7,0,7,0.00
2013-2-14,59,52,44,38,35,31,60,51,43,0.00,40.00,0,0,0,0.00
2013-2-15,44,37,32,30,27,24,78,68,56,17.62,17.62,3,0,3,0.00
2013-2-18,59,47,34,52,37,26,82,68,60,25.86,19.12,12,1,12,0.06
2013-2-19,50,36,22,28,22,16,81,58,38,30.12,23.25,7,0,7,0.00
2013-2-20,35,32,26,30,23,15,84,71,51,22.57,17.22,9,0,9,0.09
2013-2-21,36,33,30,34,30,25,93,89,80,26.05,17.22,14,1,14,0.03
2013-2-22,40,32,22,32,24,18,92,74,57,26.05,17.31,6,0,6,0.02
2013-2-23,46,32,18,27,22,15,89,68,44,26.14,17.83,4,0,4,0.00
2013-2-24,60,43,23,39,30,19,90,63,42,24.55,20.39,7,0,7,0.00
2013-2-25,43,39,36,37,33,29,90,79,64,22.12,17.04,13,1,13,0.31
2013-2-26,37,34,33,34,32,31,93,91,89,20.48,20.33,10,0,10,0.12
2013-2-27,42,35,32,35,30,27,92,84,69,20.48,17.83,6,0,6,0.04
2013-2-28,39,34,28,30,28,24,90,79,67,21.66,17.83,7,0,7,0.00
2013-3-4,54,52,51,44,43,43,74,72,69,27.38,27.38,0,0,0,0.00
2013-3-11,48,41,30,34,27,23,77,58,46,26.79,21.48,7,0,7,0.01
2013-3-12,61,43,28,35,29,22,88,60,32,27.51,23.80,11,0,11,0.00
2013-3-13,54,40,26,25,22,19,81,50,28,27.56,20.59,6,0,6,0.00
2013-3-14,72,52,31,44,34,21,73,52,34,27.56,23.01,10,0,10,0.00
2013-3-15,81,64,47,53,46,40,86,56,32,26.05,24.00,11,0,11,0.00
2013-3-16,78,64,51,54,47,40,68,55,42,26.35,24.00,11,0,11,0.00
2013-3-17,51,44,41,42,40,38,93,86,67,26.16,24.09,13,1,13,0.30
2013-3-18,55,46,37,44,38,28,94,77,45,27.89,24.20,7,0,7,0.01
2013-3-19,58,44,30,31,27,22,87,55,26,27.89,21.14,11,0,11,0.00
2013-3-20,54,39,26,33,23,18,89,57,28,26.25,22.85,11,0,11,0.00
2013-3-21,44,36,32,33,24,14,91,66,31,26.25,25.00,11,1,11,0.26
2013-3-22,41,37,33,38,34,31,93,91,87,25.94,20.22,5,0,5,0.27
2013-3-23,41,39,37,39,37,34,93,92,91,25.78,21.59,7,0,7,0.03
2013-3-24,41,34,27,39,30,22,99,88,75,27.77,25.30,15,0,15,0.08
2013-3-25,36,29,24,28,23,19,85,77,60,27.77,26.97,7,0,7,0.00
2013-3-26,47,33,20,29,23,17,90,69,43,26.97,20.45,5,0,5,0.00
2013-3-27,62,57,49,32,30,26,50,37,27,25.48,24.53,10,0,10,0.00
2013-3-28,74,58,45,51,42,29,71,54,44,26.17,21.01,7,0,7,0.00
2013-3-29,70,59,52,57,52,47,92,77,60,26.28,24.02,6,0,6,0.28
2013-3-30,72,60,54,58,55,51,93,82,59,26.59,23.97,6,0,6,0.64
2013-3-31,72,58,48,55,47,39,93,68,37,26.72,22.07,12,0,12,0.07
2013-4-1,67,50,38,45,39,33,91,70,42,26.69,23.15,12,0,12,0.01
2013-4-2,43,38,36,36,34,31,92,87,64,26.42,20.86,7,0,7,0.42
2013-4-3,51,44,37,37,29,25,83,58,39,26.44,22.00,16,1,16,0.05
2013-4-4,61,48,40,40,36,31,86,66,35,26.07,20.83,10,0,10,0.02
2013-4-5,72,53,31,43,36,27,90,56,29,25.83,20.33,4,0,4,0.00
2013-4-6,78,63,52,51,45,36,68,53,37,26.13,24.19,14,1,14,0.00
2013-4-7,80,66,52,61,54,47,90,68,48,26.47,24.00,13,0,13,0.00
2013-4-8,74,66,60,62,58,54,90,77,66,24.85,23.91,14,0,14,0.16
2013-4-9,80,72,63,65,61,56,80,69,55,24.89,23.88,11,0,11,0.00
2013-4-10,73,48,37,65,44,36,93,89,66,26.72,23.43,9,0,9,1.04
2013-4-11,53,41,34,39,34,30,93,76,49,27.01,20.25,7,0,7,0.04
2013-4-12,61,46,34,39,34,29,87,64,41,27.08,17.60,9,0,9,0.00
2013-4-13,70,54,39,50,42,33,92,65,44,25.75,18.21,9,0,9,0.02
2013-4-14,80,68,54,54,50,45,74,55,36,25.55,24.03,18,1,18,0.00
2013-4-15,81,68,58,66,58,49,84,70,58,25.47,23.92,13,0,13,0.00
2013-4-16,79,63,52,65,56,49,91,79,60,24.53,24.03,7,0,7,0.00
2013-4-17,84,72,57,70,63,54,95,75,57,24.50,23.98,13,1,13,0.00
2013-4-18,75,50,38,66,45,31,93,84,72,26.05,24.05,13,0,13,3.27
2013-4-19,52,39,33,33,30,27,79,69,47,26.25,24.90,8,0,8,0.00
2013-4-21,64,57,52,44,40,37,58,54,45,24.45,24.36,2,0,2,0.00
2013-4-22,76,61,42,48,43,36,87,54,34,25.44,23.77,12,0,12,0.00
2013-4-23,60,51,37,54,45,34,91,81,60,26.22,23.97,7,0,7,0.12
2013-4-24,60,45,35,38,33,30,91,67,37,26.55,23.89,6,0,6,0.01
2013-4-25,72,54,30,41,34,26,90,53,27,27.95,24.08,5,0,5,0.00
2013-4-26,58,53,48,47,43,38,89,70,46,26.01,23.93,5,0,5,0.19
2013-5-2,52,43,34,45,39,32,94,85,77,26.37,25.01,12,0,12,0.23
2013-5-3,47,39,33,41,34,31,94,85,59,27.04,17.32,11,0,11,0.36
2013-5-4,47,41,36,42,37,32,93,86,76,27.16,17.32,4,0,4,0.25
2013-5-5,66,51,36,50,43,33,93,76,51,27.16,21.14,9,0,9,0.00
2013-5-6,67,55,49,55,49,45,92,81,63,26.48,24.03,7,0,7,0.00
2013-5-7,79,62,43,59,50,40,93,68,43,26.18,22.48,4,0,4,0.00
2013-5-8,81,66,49,63,55,46,92,71,45,24.49,23.95,8,0,8,0.00
2013-5-9,81,67,59,66,60,56,93,78,54,24.59,23.95,6,0,6,0.74
2013-5-10,73,63,55,65,58,51,95,84,64,27.13,27.13,0,0,0,1.16
2013-5-11,78,61,46,57,48,39,93,65,36,31.82,31.82,1,0,0,0.00
2013-5-12,72,55,38,45,39,34,90,59,29,26.04,25.01,0,0,0,0.00
2013-5-15,79,70,65,67,64,61,93,84,66,24.42,24.21,6,0,6,0.38
2013-5-16,69,65,61,65,62,59,94,89,82,24.58,24.13,4,0,4,0.04
2013-5-17,84,71,57,68,62,54,94,76,54,24.54,24.10,4,0,4,0.00
2013-5-18,88,76,63,76,69,60,94,79,63,24.49,24.23,6,0,6,0.00
2013-5-19,90,80,71,70,67,64,91,68,45,24.27,24.23,9,0,12,0.04
2013-5-20,79,73,66,71,67,61,91,82,72,24.54,24.23,10,0,10,0.08
2013-5-21,63,61,59,61,59,57,94,93,91,24.46,23.91,11,0,11,0.68
2013-5-22,78,66,54,65,58,53,95,78,53,26.76,23.96,6,0,6,0.01
2013-5-23,78,66,54,64,58,51,94,77,56,24.51,24.27,6,0,6,0.00
2013-5-24,79,68,57,64,57,53,87,71,55,24.49,24.25,10,0,10,0.00
2013-5-25,86,71,60,69,58,51,77,65,53,24.49,24.24,6,0,6,0.00
2013-5-28,87,80,73,70,66,64,75,64,54,24.25,24.23,11,1,11,0.01
2013-5-29,83,76,70,70,66,64,82,70,60,24.42,24.24,13,0,13,0.00
2013-5-30,81,72,63,71,65,60,93,81,64,24.46,24.24,15,0,15,0.86
2013-5-31,86,76,62,75,70,60,95,82,66,24.26,24.23,12,0,12,0.01
2013-6-1,79,70,60,72,64,55,94,82,65,24.37,24.23,12,0,12,0.44
2013-6-2,71,62,53,61,56,50,94,80,65,24.51,24.21,6,0,6,0.00
2013-6-3,82,66,47,64,56,44,94,72,44,24.52,24.25,4,0,4,0.00
2013-6-4,78,69,63,67,62,58,86,79,68,24.29,24.24,9,0,9,0.00
2013-6-5,82,70,61,71,64,58,94,83,64,24.33,24.14,6,0,6,0.46
2013-6-6,78,68,59,66,61,55,94,80,62,24.27,24.25,6,0,6,0.00
2013-6-7,82,67,52,62,56,49,94,70,44,24.37,24.24,9,0,9,0.00
2013-6-8,84,70,51,65,58,48,94,68,47,24.41,24.21,4,0,4,0.00
2013-6-9,86,74,64,70,62,58,91,69,43,24.41,24.12,6,0,6,0.02
2013-6-10,95,80,64,75,67,58,85,68,44,24.33,24.17,6,0,6,0.00
2013-6-11,97,82,68,76,69,64,92,67,42,24.33,24.09,7,0,7,0.00
2013-6-12,94,83,73,74,71,69,88,69,48,24.31,24.17,10,0,10,0.00
2013-6-13,90,80,70,75,70,66,93,75,46,24.31,24.09,5,0,5,0.00
2013-6-14,94,87,77,78,75,71,85,68,57,24.31,24.20,3,0,3,0.00
2013-6-15,94,79,70,78,70,65,94,75,55,24.32,24.09,7,0,7,0.23
2013-6-16,90,77,69,77,71,65,95,81,58,24.40,24.21,6,0,6,0.02
2013-6-17,72,70,66,70,67,63,94,90,86,24.26,24.23,6,0,6,0.34
2013-6-18,86,74,62,72,65,60,95,76,52,24.26,24.24,5,0,5,0.00
2013-6-19,90,76,61,72,65,58,94,69,46,24.24,24.23,2,0,5,0.00
2013-6-20,94,80,64,75,69,60,93,71,51,24.31,24.22,7,0,7,0.00
2013-6-21,96,84,74,77,72,70,89,70,52,24.23,24.22,6,0,6,0.00
2013-6-22,93,83,72,76,71,68,89,70,53,24.32,24.07,5,0,5,0.00
2013-6-23,94,83,72,76,71,68,91,70,52,24.36,24.21,8,0,8,0.00
2013-6-24,94,83,73,76,71,67,87,68,50,24.31,24.22,6,0,6,0.00
2013-6-25,93,82,75,75,71,69,85,70,51,24.31,24.08,12,0,12,0.00
2013-6-30,77,71,65,63,60,58,79,70,59,24.28,24.16,5,0,5,0.00
2013-7-1,86,72,59,64,58,52,92,64,38,24.26,24.25,10,0,10,0.00
2013-7-2,85,70,53,62,55,49,92,63,37,24.36,24.25,10,0,10,0.00
2013-7-3,87,71,54,63,55,50,92,62,31,24.27,24.23,12,0,12,0.00
2013-7-4,91,74,57,66,59,53,92,61,36,24.26,24.12,5,0,5,0.00
2013-7-5,94,78,58,68,61,54,92,60,35,24.26,24.23,5,0,5,0.00
2013-7-6,94,77,65,68,62,58,89,62,35,24.25,24.24,3,0,3,0.01
2013-7-7,96,82,69,71,66,61,87,62,37,24.34,24.12,4,0,4,0.00
2013-7-8,97,83,68,75,68,63,91,64,41,24.36,24.16,3,0,3,0.00
2013-7-9,99,86,72,76,71,67,89,63,44,24.24,24.22,7,0,7,0.00
2013-7-10,101,86,72,76,70,66,87,61,39,24.23,24.22,6,0,6,0.00
2013-7-11,97,84,71,77,69,63,90,64,42,24.23,24.22,4,0,4,0.00
2013-7-12,94,82,70,73,66,61,76,59,46,24.24,24.18,7,0,7,0.00
2013-7-13,92,79,64,66,61,57,84,58,39,24.32,24.09,4,0,4,0.00
2013-7-14,88,79,64,64,60,54,85,53,32,24.24,24.23,5,0,7,0.00
2013-7-15,95,81,71,70,67,63,84,65,42,24.24,24.18,11,0,11,0.00
2013-7-16,90,78,69,76,70,65,92,76,54,24.25,24.23,4,0,4,0.01
2013-7-17,95,82,67,74,68,64,94,66,41,24.23,24.23,1,0,5,0.00
2013-7-18,97,83,67,75,69,63,92,65,43,24.24,24.22,5,0,5,0.00
2013-7-19,99,83,72,75,69,66,85,65,41,24.23,24.22,4,0,5,0.00
2013-7-20,99,82,69,76,70,65,91,70,44,24.24,24.18,7,0,7,0.09
2013-7-21,83,75,69,76,71,66,92,88,77,24.25,24.23,4,0,4,0.26
2013-7-22,88,76,68,75,69,61,92,79,61,24.25,24.23,11,0,11,0.34
2013-7-23,100,86,72,80,74,67,90,71,48,24.25,24.21,11,0,11,0.17
2013-7-24,73,72,71,70,69,69,92,91,90,24.23,24.22,5,0,5,0.62
2013-11-8,65,57,50,43,40,38,71,56,39,24.40,24.19,1,0,7,0.00
2013-11-9,65,38,44,47,-2,-100,81,44,48,24.41,24.21,0,-318,1,0.00
2013-11-10,66,21,52,45,-50,-100,67,18,43,24.40,24.17,2,-654,4,0.00
2013-11-11,68,11,63,54,-75,-100,69,10,59,24.39,24.17,0,-836,1,0.00
2013-11-12,42,9,36,21,-74,-100,53,9,39,24.45,24.17,1,-780,6,0.00
2013-11-13,50,12,47,26,-69,-100,42,9,35,24.43,24.28,0,-749,2,0.00
2013-11-18,62,53,44,32,29,26,62,41,26,24.32,24.26,1,0,6,0.00
2013-11-19,61,51,39,34,28,19,68,44,29,24.43,24.15,1,0,5,0.00
2013-11-20,61,53,45,36,28,17,50,38,27,24.41,24.17,1,0,9,0.00
2013-11-22,34,33,32,32,30,29,93,90,89,24.50,24.16,0,0,6,0.00
2013-11-23,39,32,24,29,24,14,90,71,49,24.78,24.17,1,0,6,0.01
2013-11-24,32,26,19,19,15,12,80,63,50,24.50,24.19,0,0,5,0.00
2013-11-25,38,34,31,30,26,17,84,71,52,24.52,24.22,0,0,2,0.01
2013-11-26,47,36,27,34,27,17,89,72,52,24.49,24.42,1,0,6,0.00
2013-11-27,37,27,18,17,14,11,77,59,39,24.54,24.24,1,0,6,0.00
2013-11-28,54,35,21,31,23,14,77,62,40,24.51,24.42,1,0,3,0.00
2013-11-29,55,38,22,33,25,18,90,62,34,24.51,24.21,0,0,4,0.00
2013-11-30,59,45,33,44,36,24,92,71,58,24.51,24.15,2,0,6,0.00
2013-12-1,56,47,38,52,44,36,94,88,82,24.47,24.15,0,0,1,0.00
2013-12-2,64,49,40,53,43,37,94,82,59,24.50,24.14,0,0,1,0.00
2013-12-3,67,51,36,53,44,33,94,79,47,24.47,24.14,0,0,3,0.00
2013-12-4,63,47,34,52,42,29,98,82,57,24.46,24.13,1,0,4,0.01
2013-12-5,34,26,21,30,20,17,89,81,65,24.47,24.31,0,0,9,0.00
2013-12-6,24,20,15,20,15,8,89,82,73,24.48,24.33,0,0,10,0.00
2013-12-7,26,17,5,14,8,0,81,69,50,24.50,24.29,2,0,6,0.00
2013-12-8,30,25,22,28,20,13,92,83,67,24.47,24.46,1,0,5,0.00
2013-12-9,28,23,21,18,16,15,84,76,64,24.47,24.22,0,0,5,0.01
2013-12-10,32,22,14,20,16,9,89,77,59,24.51,24.21,0,0,1,0.05
2013-12-11,38,25,15,28,18,11,90,76,62,24.52,24.20,0,0,3,0.15
2013-12-12,40,26,12,26,18,8,89,72,55,24.55,24.23,0,0,2,0.14
2013-12-13,38,34,27,34,30,21,92,85,76,24.45,24.22,1,0,5,0.41
2013-12-14,36,32,24,34,30,20,93,91,84,24.47,24.30,1,0,10,0.28
2013-12-15,46,32,19,36,27,16,92,80,64,24.97,24.27,0,0,2,0.10
2013-12-16,59,45,36,41,35,31,85,68,46,24.53,24.25,0,0,3,0.03
2013-12-17,59,43,31,41,32,24,90,67,40,24.54,24.16,1,0,8,0.00
2013-12-18,61,45,26,41,34,22,89,66,43,24.56,24.18,2,0,10,0.00
2013-12-19,60,56,51,55,49,40,85,78,65,24.47,24.13,2,1,9,0.00
2013-12-20,62,50,34,58,46,31,89,86,73,24.49,24.17,1,0,10,0.01
2013-12-22,29,28,27,25,25,23,87,87,86,24.52,24.28,0,0,10,0.00
2013-12-23,32,25,17,24,20,13,87,83,70,24.55,24.21,0,0,4,0.00
2013-12-24,41,28,16,30,21,12,90,78,62,24.57,24.22,1,0,5,0.02
2013-12-25,45,32,24,36,27,20,92,81,69,24.54,24.19,0,0,1,0.00
2013-12-26,52,34,22,36,26,20,95,74,47,24.54,24.22,0,0,3,0.00
2013-12-27,56,39,26,38,29,22,91,71,45,24.52,24.20,1,0,3,0.00
2013-12-28,54,39,24,39,30,20,92,70,43,24.45,24.26,1,0,4,0.00
2013-12-29,42,31,21,38,25,15,86,78,73,24.53,24.19,1,0,4,0.00
2013-12-30,38,26,15,25,18,10,84,73,56,24.57,24.20,0,0,3,0.00
2013-12-31,51,25,19,33,20,15,94,82,49,24.54,24.22,0,0,1,0.00